Location: Borea
(45.6167°N, 23.0167°E)
Time: 10:33:21
(UTC+00:00)

Cosmos 2333 Rocket - Pass Details

Date: 03 February 2023
Orbit: 838 x 864 km, 70.8° (Epoch: 20 March)

Event Time Altitude Azimuth Distance (km) Brightness Sun altitude
Rises 16:28:47 0° 169° (SSE) 3,376 5.4 -9.5°
Reaches altitude 10° 16:31:35 10° 156° (SSE) 2,448 4.5 -9.9°
Maximum altitude 16:36:06 26° 103° (ESE) 1,618 3.2 -10.7°
Enters shadow 16:40:19 11° 51° (NE) 2,370 4.0 -11.4°
